Location: Beddau
(51.5575°N, 3.3561°W)
Time: 11:51:01
(UTC+00:00)

USA 234 - Pass Details

Date: 03 March 2021
Orbit: 1102 x 1105 km, 123.0° (Epoch: 16 April)

Event Time Altitude Azimuth Distance (km) Brightness Sun altitude
Exits shadow 19:39:57 21° 75° (ENE) 2,274 4.4 -16.7°
Maximum altitude 19:44:04 43° 136° (SE) 1,503 3.6 -17.3°
Drops below altitude 10° 19:50:13 10° 206° (SSW) 2,955 5.7 -18.2°
Sets 19:52:51 0° 213° (SSW) 3,911 6.4 -18.6°
